BEIJING 1 1 28890U 05043A 26120.97601292 .00000255 00000+0 58665-4 0 9991 2 28890 98.2832 253.9447 0015860 70.9159 289.3758 14.63503681 93748 HUANJING 1A (HJ-1A) 1 33320U 08041A 26121.23497829 .00001196 00000+0 14997-3 0 9999 2 33320 97.6663 108.8980 0017693 295.6743 64.2644 14.83879215951443 HUANJING 1B (HJ-1B) 1 33321U 08041B 26121.18330524 .00001043 00000+0 13254-3 0 9998 2 33321 97.6504 112.1602 0036075 340.3050 19.6769 14.83231995951440 YAOGAN-4 1 33446U 08061A 26120.80655290 .00001038 00000+0 13390-3 0 9991 2 33446 97.9293 54.6751 0013227 220.9930 139.0290 14.83109993938640 DEIMOS-1 1 35681U 09041A 26121.18144580 .00000251 00000+0 44139-4 0 9992 2 35681 97.7343 280.4617 0001734 41.1382 318.9958 14.75186088899951 UK-DMC 2 1 35683U 09041C 26121.17796994 .00000458 00000+0 73767-4 0 9993 2 35683 97.8757 257.3144 0001746 84.6078 275.5330 14.75952633899632 DMC3-FM1 1 40715U 15032A 26121.19550716 .00001240 00000+0 14889-3 0 9993 2 40715 97.6530 348.1996 0004807 192.5311 167.5786 14.85687301582930 DMC3-FM2 1 40716U 15032B 26121.15036649 .00000508 00000+0 64551-4 0 9992 2 40716 97.6585 349.6976 0005065 201.5144 158.5859 14.85689735582920 DMC3-FM3 1 40717U 15032C 26121.17345730 .00000222 00000+0 31490-4 0 9998 2 40717 97.6637 351.4423 0004418 199.2870 160.8179 14.85686733582934